User: anonymous   Login
Location: Caltech
(34.1382°N, 118.1253°W)
Time: 23:51:00
(UTC-07:00)
Language:

PAYLOAD A - Orbit

View from above orbital plane
View from above orbital plane
View from above satellite
View from above satellite

Ground track
Ground track

The orbit data is extracted from the following two-line orbital elements,

1 27840U 03031A   18114.55815669 -.00000001 +00000-0 +13441-4 0  9997
2 27840 098.2298 104.0172 0096963 260.6102 098.4114 14.38901678777999
Epoch (UTC): 24 April 2018 13:23:44
Eccentricity: 0.0096963
inclination: 98.2298°
perigee height: 693 km
apogee height: 831 km
right ascension of ascending node: 104.0172°
argument of perigee: 260.6102°
revolutions per day: 14.38901678
mean anomaly at epoch: 98.4114°
orbit number at epoch: 77799

The dashed part of the orbit path shows where the satellite is in the earth's shadow,  

DLR